Epoch 2009 Feb. 18.0 TT = JDT 2454880.5 T 2009 Feb. 7.01580 TT MPC q 2.5269628 (2000.0) P Q n 0.13430769 Peri. 255.56010 -0.00227234 -0.99995137 a 3.7763202 Node 194.58025 +0.93153982 +0.00137314 e 0.3308399 Incl. 2.18485 +0.36363222 -0.00976635 P 7.34
m1 = 13.0 + 5 log d + 10.0 log r